Hourly Data Report for February 04, 2018

MIRAMICHI RCS
NEW BRUNSWICK

47°00'34.000" N
65°27'54.000" W
33.00 m
8100989
71744
ACQ

Download Data

Hourly Data (February 2018)
Hourly Data Report for February 4, 2018
TIME
LST
Temp Definition
°C
Dew Point Definition
°C
Rel Hum Definition
%
Precip. Amount Definition
mm

Wind Dir Definition
10's deg

Wind Spd Definition
km/h
Visibility Definition
km
Stn Press Definition
kPa
Hmdx Definition


Wind Chill Definition


Weather Definition


00:00 -26.7 -29.3 79 0.0   0   102.43     LegendNANA
01:00 -26.5 -29.2 78 0.0 23 3   102.40   -30 LegendNANA
02:00 -26.8 -29.7 76 0.0 18 1   102.43   -28 LegendNANA
03:00 -26.6 -29.5 77 0.0   0   102.40     LegendNANA
04:00 -25.0 -28.1 76 0.0   0   102.40     LegendNANA
05:00 -22.7 -25.5 78 0.0   0   102.37     LegendNANA
06:00 -21.0 -23.6 80 0.3 0 1   102.37   -22 LegendNANA
07:00 -20.0 -22.5 81 0.6 2 3   102.32   -23 LegendNANA
08:00 -19.7 -22.2 81 0.7 8 4   102.23   -23 LegendNANA
09:00 -17.9 -20.2 82 0.6 3 2   102.11   -19 LegendNANA
10:00 -16.3 -18.7 82 0.7 5 3   102.01   -19 LegendNANA
11:00 -14.3 -16.7 82 0.6 10 4   101.89   -17 LegendNANA
12:00 -9.9 -11.8 86 0.6 12 4   101.80   -12 LegendNANA
13:00 -9.9 -12.4 82 0.0 27 15   101.73   -17 LegendNANA
14:00 -9.4 -11.9 83 0.0 26 9   101.63   -14 LegendNANA
15:00 -7.9 -10.0 84 0.0 27 3   101.49   -9 LegendNANA
16:00 -7.0 -8.8 87 0.2 26 2   101.46   -8 LegendNANA
17:00 0.7 -0.4 93 0.0 21 25   101.40     LegendNANA
18:00 1.2 -0.6 87 0.2 20 26   101.36     LegendNANA
19:00 1.1 0.1 93 0.3 20 20   101.37     LegendNANA
20:00 0.7 0.1 96 0.9 19 7   101.30     LegendNANA
21:00 0.7 -0.2 94 1.9 25 12   101.26     LegendNANA
22:00 0.5 0.1 97 1.0 23 12   101.24     LegendNANA
23:00 2.2 1.2 93 2.4 20 19   101.12     LegendNANA

Notes on Data Quality.

Legend

  • E = Estimated
  • M = Missing
  • NA = Not Available*
  • [empty] = Indicates an unobserved value
Date modified: